Location: Te Maire Creek
(41.1333°S, 175.9167°E)
Time: 23:58:34
(UTC+00:00)

NOSS 3-2 (C) - Pass Details

Date: 19 May 2024
Orbit: 712 x 1499 km, 63.4° (Epoch: 28 April)

Event Time Altitude Azimuth Distance (km) Brightness Sun altitude
Exits shadow 16:54:00 78° 200° (SSW) 882 3.1 -27.6°
Maximum altitude 16:54:23 87° 126° (SE) 860 3.1 -27.5°
Drops below altitude 10° 16:59:39 10° 35° (NE) 2,305 5.9 -26.6°
Sets 17:01:52 0° 34° (NE) 3,172 6.7 -26.1°
